Location: Hormuz
(27.0871°N, 56.4580°E)
Time: 02:52:30
(UTC+04:30)

X-37B - Pass Details

Date: 20 June 2021
Orbit: 383 x 392 km, 45.0° (Epoch: 01 July)

Event Time Altitude Azimuth Distance (km) Brightness Sun altitude
Rises 05:04:09 0° 321° (NW) 2,258 4.4 -9.7°
Reaches altitude 10° 05:06:28 10° 336° (NNW) 1,405 3.5 -9.3°
Maximum altitude 05:09:06 24° 33° (NNE) 854 3.2 -8.8°
Drops below altitude 10° 05:11:44 10° 89° (E) 1,405 4.4 -8.3°
Sets 05:14:03 0° 104° (ESE) 2,259 5.2 -7.9°
